          10 12  12 53.98  +41 09.0   2.049  2.316    29.0 / 156  10.4   60  .12

          11 12  12 55.02  +40 42.4   2.066  2.327    28.9 / 156  10.5   52  .19

          12 12  12 56.05  +40 16.0   2.084  2.338    28.8 / 155  10.5   46  .26

          13 12  12 57.09  +39 49.8   2.102  2.350    28.7 / 155  10.6   41  .35

          14 12  12 58.13  +39 23.8   2.120  2.361    28.5 / 155  10.6   39  .45

          15 12  12 59.17  +38 58.0   2.138  2.372    28.4 / 155  10.7   39  .54

          16 12  13 00.21  +38 32.3   2.156  2.383    28.3 / 154  10.7   43  .64

          17 12  13 01.25  +38 06.8   2.174  2.394    28.1 / 154  10.7   49  .74

          18 12  13 02.30  +37 41.5   2.192  2.405    28.0 / 154  10.8   56  .83

          19 12  13 03.34  +37 16.4   2.210  2.416    27.9 / 153  10.8   66  .90

          20 12  13 04.39  +36 51.5   2.229  2.427    27.8 / 153  10.9   76  .96

          21 12  13 05.44  +36 26.8   2.247  2.438    27.6 / 153  10.9   87  .99

          22 12  13 06.48  +36 02.2   2.266  2.449    27.5 / 152  10.9   99 1.00

          23 12  13 07.53  +35 37.8   2.285  2.460    27.4 / 152  11.0  110  .97

          24 12  13 08.58  +35 13.6   2.303  2.471    27.3 / 152  11.0  121  .92

          25 12  13 09.63  +34 49.6   2.322  2.482    27.1 / 151  11.1  131  .84

          26 12  13 10.69  +34 25.8   2.341  2.493    27.0 / 151  11.1  138  .75

          27 12  13 11.74  +34 02.1   2.360  2.505    26.9 / 151  11.1  143  .64

          28 12  13 12.80  +33 38.7   2.379  2.516    26.8 / 150  11.2  144  .53

          29 12  13 13.85  +33 15.4   2.399  2.527    26.7 / 150  11.2  140  .42

          30 12  13 14.91  +32 52.2   2.418  2.538    26.6 / 150  11.3  134  .32

     July  1 12  13 15.97  +32 29.3   2.437  2.549    26.4 / 149  11.3  126  .23

NAKANO

         **** Don't distribute anyone except personal use only ****

                (C) Copyright 2005 OAA/ComputingSection

write mail from CFAD0::NAKANO on 2005-05-25 05:44:34(JST).

 



    C/2004 Q2 (Machholz)                                                  

Epoch 2005 Jan. 30.0 TT = JDT 2453400.5  

T 2005 Jan. 24.91272 TT                                 Nakano

q   1.2050416            (2000.0)            P               Q

z  +0.0004484      Peri.   19.50582     -0.32005177     -0.71419849

 +/-0.0000015      Node    93.62411     +0.76511666     -0.58233307

e   0.9994597      Incl.   38.58919     +0.55871581     +0.38834098

From 1469 observations 2004 Aug. 27-2005 Jan. 24, mean residual 0".47.

   (1/a)org.= +0.000429, (1/a)fut.= +0.001883 (+/-0.000002), Q= 7.



NAKANO

         **** Don't distribute anyone except personal use only ****

                (C) Copyright 2005 OAA/ComputingSection

write mail from CFAD0::NAKANO on 2005-02-04 04:54:56(JST).

 



    C/2004 Q2 (Machholz)                                                  

Epoch 2005 Jan. 30.0 TT = JDT 2453400.5  

T 2005 Jan. 24.91284 TT                                 Nakano

q   1.2050384            (2000.0)            P               Q

z  +0.0004428      Peri.   19.50614     -0.32005400     -0.71419604

 +/-0.0000022      Node    93.62403     +0.76511366     -0.58233692

e   0.9994664      Incl.   38.58931     +0.55871865     +0.38833970

From 844 observations 2004 Aug. 27-Dec. 23, mean residual 0".38.

   (1/a)org.= +0.000423, (1/a)fut.= +0.001877 (+/-0.000002), Q= 6.



NAKANO

         **** Don't distribute anyone except personal use only ****

                (C) Copyright 2005 OAA/ComputingSection

write mail from CFAD0::NAKANO on 2005-01-04 01:58:32(JST).

 



◎C/2004 Q2の軌道と予報です



  各地で肉眼で観測されています.彗星の光度は,4等級後半まで明るく

なっているようです.彗星の光度は,山本速報2447(CMES)にある予報

より若干明るくなっています.光度予報は,次の式によります.



m1 =  4.76 + 5 logΔ + 11.2 log r   From  166 visual obs.

      ±0.15            ±0.3



    C/2004 Q2 (Machholz)                                                  

Epoch 2005 Jan. 30.0 TT = JDT 2453400.5  

T 2005 Jan. 24.91295 TT                                 Nakano

q   1.2050380            (2000.0)            P               Q

z  +0.0004432      Peri.   19.50619     -0.32005511     -0.71419551

 +/-0.0000027      Node    93.62406     +0.76511295     -0.58233799

e   0.9994659      Incl.   38.58931     +0.55871897     +0.38833908

From 676 observations 2004 Aug. 27-Dec. 11, mean residual 0".37.

   (1/a)org.= +0.000423, (1/a)fut.= +0.001878 (+/-0.000003), Q= 6.

 

Date/        TT  R.A.(2000) Decl.     Delta   r     Daily motion  Mag.  Moon Age

              h    h  m       。  ,                      ,  / PA 。  m1      。

2004 Dec. 10 14  04 38.81  -21 27.6   0.512  1.394    54.8 / 331   4.9  134  .03

          11 14  04 36.91  -20 39.6   0.501  1.386    57.9 / 332   4.9  134  .00

          12 14  04 34.97  -19 48.5   0.491  1.379    61.1 / 333   4.8  129  .01

          13 14  04 32.99  -18 54.3   0.481  1.372    64.4 / 333   4.7  121  .04

          14 14  04 30.97  -17 56.7   0.471  1.365    67.8 / 334   4.6  112  .10

          15 14  04 28.91  -16 55.6   0.461  1.358    71.4 / 335   4.6  101  .18

          16 14  04 26.81  -15 50.9   0.452  1.351    75.0 / 336   4.5   90  .27

          17 14  04 24.67  -14 42.5   0.443  1.344    78.7 / 336   4.4   79  .38

          18 14  04 22.51  -13 30.4   0.434  1.337    82.6 / 337   4.4   68  .49

          19 14  04 20.31  -12 14.3   0.425  1.331    86.4 / 338   4.3   58  .59

          20 14  04 18.08  -10 54.3   0.417  1.324    90.4 / 338   4.2   48  .69

          21 14  04 15.83  -09 30.3   0.409  1.318    94.3 / 339   4.2   39  .78

          22 14  04 13.55  -08 02.2   0.402  1.312    98.3 / 340   4.1   33  .86

          23 14  04 11.25  -06 30.1   0.395  1.306   102.2 / 340   4.1   30  .92

          24 14  04 08.93  -04 53.9   0.388  1.300   106.1 / 341   4.0   31  .96

          25 14  04 06.60  -03 13.8   0.382  1.294   109.8 / 341   3.9   36  .99

          26 14  04 04.25  -01 29.8   0.376  1.289   113.4 / 342   3.9   44 1.00

          27 14  04 01.89  +00 18.0   0.371  1.283   116.9 / 342   3.8   53  .99

          28 14  03 59.51  +02 09.3   0.366  1.278   120.1 / 343   3.8   64  .96

          29 14  03 57.14  +04 04.0   0.362  1.273   123.0 / 343   3.7   74  .92

          30 14  03 54.75  +06 01.8   0.358  1.268   125.7 / 344   3.7   86  .86

          31 14  03 52.37  +08 02.3   0.355  1.263   127.9 / 344   3.7   97  .79

2005 Jan.  1 14  03 49.99  +10 05.3   0.352  1.259   129.8 / 344   3.6  109  .71

           2 14  03 47.61  +12 10.3   0.350  1.254   131.3 / 345   3.6  121  .62

           3 14  03 45.25  +14 16.9   0.349  1.250   132.3 / 345   3.6  134  .52

           4 14  03 42.89  +16 24.8   0.348  1.246   132.8 / 345   3.6  147  .41

           5 14  03 40.54  +18 33.3   0.347  1.242   132.9 / 346   3.5  160  .31

           6 14  03 38.22  +20 42.1   0.347  1.239   132.6 / 346   3.5  174  .21

           7 14  03 35.91  +22 50.7   0.348  1.235   131.7 / 346   3.5  171  .12

           8 14  03 33.62  +24 58.6   0.349  1.232   130.5 / 347   3.5  156  .06

           9 14  03 31.36  +27 05.5   0.351  1.229   128.8 / 347   3.5  141  .01

          10 14  03 29.13  +29 10.9   0.354  1.226   126.8 / 347   3.5  126  .00

NAKANO

         **** Don't distribute anyone except personal use only ****

                (C) Copyright 2004 OAA/ComputingSection

write mail from CFAD0::NAKANO on 2004-12-13 05:22:35(JST).

 

    C/2004 Q2 (Machholz)                                                  

Epoch 2005 Jan. 30.0 TT = JDT 2453400.5  

T 2005 Jan. 24.91312 TT                                 Nakano

q   1.2050398            (2000.0)            P               Q

z  +0.0004459      Peri.   19.50609     -0.32005557     -0.71419576

 +/-0.0000030      Node    93.62415     +0.76511352     -0.58233762

e   0.9994626      Incl.   38.58928     +0.55871794     +0.38833916

From 639 observations 2004 Aug. 27-Dec. 6, mean residual 0".37.

   (1/a)org.= +0.000426, (1/a)fut.= +0.001881 (+/-0.000003), Q= 6.



NAKANO

         **** Don't distribute anyone except personal use only ****

                (C) Copyright 2004 OAA/ComputingSection

write mail from CFAD0::NAKANO on 2004-12-09 01:41:38(JST).

 



◎C/2004 Q2の軌道と予報位置です



 彗星は,現在,6等級後半まで明るくなっている.報告された眼視観測

112個から,決定された光度式は,



    m1 =  5.18 + 5 logΔ + 10.0 log r

          ±0.19            ±0.3



で,CMESにある山本速報No.2443のk=10とした推定式と良く合ってい

る.また,下の軌道の平均残差は0".34と,彗星は,非常に良く集光してお

り,(1/a)org.も適度に大きく,1月上旬には,3等級後半までは,明るく

なるだろう.



    C/2004 Q2 (Machholz)                                                  

Epoch 2005 Jan. 30.0 TT = JDT 2453400.5  

T 2005 Jan. 24.91423 TT                                 Nakano

q   1.2050660            (2000.0)            P               Q

z  +0.0004365      Peri.   19.50415     -0.32005524     -0.71419846

 +/-0.0000042      Node    93.62560     +0.76512606     -0.58232761

e   0.9994739      Incl.   38.58914     +0.55870095     +0.38834921

From 475 observations 2004 Aug. 27-Nov. 15, mean residual 0".34.

   (1/a)org.= +0.000417, (1/a)fut.= +0.001871 (+/-0.000004), Q= 6.

 

Date/        TT  R.A.(2000) Decl.     Delta   r     Daily motion  Mag.  Moon Age

              h    h  m       。  ,                      ,  / PA 。  m1      。

2004 Nov. 15 14  05 09.32  -30 07.4   0.826  1.612     8.8 / 300   6.9  119  .12

          16 14  05 08.73  -30 03.0   0.812  1.602     9.9 / 302   6.8  114  .21

          17 14  05 08.09  -29 57.8   0.798  1.593    10.9 / 304   6.7  107  .32

          18 14  05 07.39  -29 51.6   0.785  1.583    12.0 / 306   6.7  100  .43

          19 14  05 06.65  -29 44.5   0.771  1.574    13.2 / 308   6.6   92  .54

          20 14  05 05.85  -29 36.3   0.758  1.565    14.4 / 310   6.5   84  .65

          21 14  05 05.01  -29 27.1   0.744  1.555    15.7 / 311   6.5   77  .74

          22 14  05 04.11  -29 16.7   0.731  1.546    17.0 / 313   6.4   70  .83

          23 14  05 03.16  -29 05.2   0.718  1.537    18.4 / 314   6.3   64  .90

